Tracking 29892 objects as of 21-Nov-2024
HD Live streaming from Space Station
objects crossing your sky now

STARLINK-3828

Track STARLINK-3828 now!
10-day predictions
STARLINK-3828 is classified as:


NORAD ID: 52469
Int'l Code: 2022-049U
Perigee: 545.8 km
Apogee: 547.9 km
Inclination: 53.2 °
Period: 95.4 minutes
Semi major axis: 6917 km
RCS: Unknown
Launch date: May 6, 2022
Source: United States (US)
Launch site: AIR FORCE EASTERN TEST RANGE (AFETR)
Your satellite tracking list
Your tracking list is empty




NASA's NSSDC Master Catalog

Two Line Element Set (TLE):
1 52469U 22049U   24325.57745278  .00009830  00000-0  63463-3 0  9999
2 52469  53.2138  27.4901 0001540  88.2144 271.9024 15.08852328140675
Source of the keplerian elements: AFSPC